Location: Gollag?dem
(16.8053°N, 80.8024°E)
Time: 10:14:42
(UTC+00:00)

Cosmos 1656 - Pass Details

Date: 13 August 2020
Orbit: 798 x 849 km, 71.1° (Epoch: 19 September)

Event Time Altitude Azimuth Distance (km) Brightness Sun altitude
Rises 14:24:09 0° 351° (N) 3,338 7.2 -19.2°
Reaches altitude 10° 14:26:38 10° 357° (N) 2,413 6.4 -19.8°
Maximum altitude 14:32:00 51° 72° (ENE) 1,038 3.8 -21.0°
Enters shadow 14:33:08 44° 109° (ESE) 1,139 3.9 -21.2°
